Wind_Speed
7 7 7 7 8 9 10 11 11 10 10 9 8 9 8 8 8 7 7 7 7 7 7 7 6 6 5 5 5 5 5 5 5 4 5 5 5 5 5 5 5 5 6
6 7 7 7 7 8 9 10 10 10 9 8 8 8 8 8 8 8 7 7 7 7 6 6 5 5 5 5 5 5 5 5 4 4 4 4 5 4 4 5 5 6 5
7 6 6 7 7 8 8 9 9 9 8 7 7 6 7 7 7 7 7 6 6 5 5 5 5 5 5 5 4 4 4 4 4 4 4 4 4 4 5 4 4 4 4
6 6 6 7 7 7 8 8 8 7 8 7 6 6 6 7 7 7 6 5 5 5 4 5 5 5 5 5 5 4 4 4 3 3 3 4 4 4 4 4 4 3 3
6 6 6 7 7 7 7 7 7 6 6 6 6 6 6 6 6 6 5 4 4 4 4 4 4 4 4 4 4 4 3 3 3 3 3 3 3 3 4 4 3 3 3
5 6 7 7 7 6 6 6 6 6 6 6 5 5 5 5 5 5 5 4 4 4 4 4 3 3 2 3 4 3 3 3 3 3 3 3 3 3 3 3 3 3 2
6 6 6 7 7 6 6 6 6 7 6 5 5 4 5 4 5 5 5 5 4 4 3 3 3 3 3 3 3 3 3 3 3 3 3 3 2 2 2 2 2 2 2
6 6 7 7 7 6 6 6 6 6 6 5 4 4 4 4 4 5 4 4 4 4 3 3 3 3 3 3 3 3 2 2 2 2 2 2 2 2 2 2 2 2 2
6 6 6 7 7 6 6 5 6 6 5 5 4 4 4 4 3 4 4 4 3 3 3 3 3 3 3 3 2 2 2 2 2 1 2 1 1 2 2 1 2 2 1
6 6 6 6 6 6 6 5 5 5 5 4 4 4 3 3 3 3 3 3 3 3 3 3 3 3 3 2 2 1 2 1 2 2 1 1 1 1 1 1 1 1 1
7 7 6 6 6 6 5 5 4 4 4 4 4 3 3 3 3 3 2 2 3 3 3 2 3 2 3 2 1 1 2 2 2 2 1 1 1 1 1 1 1 1 2
7 7 6 5 5 5 5 4 4 4 4 4 4 4 3 2 2 2 2 2 2 2 2 2 2 2 2 2 2 2 2 1 1 1 1 1 1 2 2 1 1 2 2
7 7 6 5 5 5 4 4 4 4 4 4 4 3 3 3 2 2 2 2 2 2 2 2 1 1 1 2 2 2 2 1 1 1 1 1 2 2 2 2 2 2 2
7 6 6 5 5 4 4 3 3 4 4 4 3 3 3 3 2 2 2 2 1 0 1 2 1 2 1 2 2 3 2 2 2 2 2 2 1 2 2 2 3 3 2
6 5 5 5 4 4 4 3 3 3 4 4 3 3 2 2 2 2 2 2 1 0 1 1 1 2 2 2 3 3 3 2 2 3 2 3 3 3 3 3 3 4 3
6 5 5 4 4 4 4 4 4 3 4 3 3 3 2 2 2 2 2 2 2 1 1 1 1 2 3 3 3 4 4 3 3 3 3 3 3 4 4 4 5 4 4
7 6 5 5 4 4 4 3 3 3 3 3 2 2 2 2 2 2 2 1 2 2 2 2 2 2 3 4 4 4 5 4 4 4 4 4 4 4 5 5 5 5 5
7 6 6 5 4 4 3 3 2 2 2 2 2 2 2 1 1 1 1 2 2 3 3 3 2 2 3 4 4 4 5 5 5 5 5 5 5 5 5 6 6 6 6
6 6 6 5 5 4 3 2 2 2 1 1 1 1 0 0 1 1 1 2 2 4 4 3 2 3 4 4 5 5 5 5 6 6 6 6 6 6 6 6 7 6 6
6 6 5 4 4 4 3 2 1 1 1 1 0 1 1 1 1 2 2 2 3 3 4 4 3 3 4 5 5 5 6 6 6 6 6 6 6 6 7 7 7 7 7
5 6 5 3 3 3 2 1 1 1 1 1 1 1 1 1 2 2 3 3 4 4 4 4 3 4 4 5 6 6 6 6 6 6 7 7 7 7 8 8 8 8 8
5 5 4 3 2 1 1 1 1 1 1 2 1 1 2 2 3 3 4 5 5 4 4 4 5 5 5 6 6 6 6 7 6 7 7 7 8 8 8 9 9 9 9
5 5 4 3 3 1 1 1 1 1 1 2 2 2 3 4 4 5 5 5 6 6 5 5 6 6 6 6 7 7 7 8 8 8 8 9 9 9 10 10 10 10 10
4 5 4 4 3 2 2 2 1 1 2 2 3 3 4 5 5 6 6 7 7 8 8 7 7 7 8 8 8 8 8 8 9 10 10 10 11 11 12 12 12 12 12
4 4 5 4 4 3 3 3 3 4 4 4 5 5 5 6 6 6 7 8 9 9 10 9 9 9 9 9 9 10 10 10 10 11 11 12 12 13 13 14 14 13 13
5 5 6 5 5 5 5 5 5 5 6 7 7 7 7 8 8 8 9 10 10 10 10 11 11 11 11 10 11 11 12 12 12 12 12 13 14 15 15 15 16 15 15
Wind_Direction
96 101 106 101 98 98 97 94 95 96 96 96 94 89 91 92 94 97 99 100 102 100 98 97 97 97 100 103 100 94 93 95 105 110 116 113 111 105 101 103 102 109 115
92 99 105 104 104 102 96 94 94 97 95 97 98 93 93 94 95 96 101 101 100 97 97 98 94 92 96 97 99 96 92 85 87 98 106 108 103 99 96 100 99 103 109
90 104 102 102 104 102 95 91 90 92 90 92 96 95 94 93 92 98 99 101 100 95 96 95 96 90 92 94 92 95 94 86 80 97 101 99 96 91 94 97 97 102 103
94 101 99 99 99 98 96 90 90 93 95 95 95 90 86 88 93 95 97 94 95 96 94 94 94 90 91 93 91 94 96 88 90 98 97 94 93 90 91 85 87 98 101
97 96 98 97 97 96 93 87 90 91 91 91 96 87 85 89 91 93 88 81 88 97 100 96 93 96 95 92 89 94 94 99 104 98 95 90 85 76 79 73 72 86 104
101 100 101 102 99 97 94 91 94 91 88 89 93 86 88 91 93 90 86 83 93 98 101 101 96 101 95 87 89 94 97 99 107 105 97 89 83 68 68 69 64 66 79
105 101 102 105 102 100 95 93 94 92 91 91 92 87 90 89 88 88 86 85 93 100 109 112 107 100 86 88 91 89 92 98 102 109 101 90 75 55 51 53 58 64 69
106 99 96 104 104 102 92 89 89 94 94 91 92 93 89 84 86 82 83 85 86 94 101 109 100 92 95 94 89 84 84 94 82 97 101 91 55 32 21 16 29 39 42
102 99 97 107 102 99 96 93 95 96 96 96 94 95 91 82 84 80 83 86 85 86 85 90 83 85 91 90 78 64 56 51 60 66 79 78 47 19 16 10 0 7 9
96 101 104 108 102 101 101 106 109 106 99 101 98 92 96 89 85 76 84 82 83 82 83 85 80 68 66 71 64 44 25 34 34 37 42 30 17 12 10 344 349 355 351
95 97 98 104 101 97 102 111 120 115 110 106 105 93 94 92 89 84 89 68 71 64 67 85 82 69 55 46 35 19 12 23 34 29 20 1 355 346 338 336 343 342 340
101 102 101 101 100 98 102 105 110 116 110 105 101 94 93 92 97 92 76 56 71 59 53 58 68 72 53 31 11 350 348 11 11 8 7 346 329 326 316 322 328 326 328
102 102 102 95 90 90 93 96 104 113 111 108 102 88 89 90 85 71 66 53 77 74 55 45 46 45 28 4 352 347 353 2 1 348 332 312 308 315 310 306 312 325 334
101 103 98 99 94 92 94 99 111 117 122 117 102 82 85 80 69 64 74 54 72 77 38 24 14 356 348 350 343 336 339 347 348 349 329 318 318 322 313 304 303 308 313
95 99 101 101 95 90 92 98 119 124 129 126 109 91 77 54 62 72 64 70 65 23 324 336 335 329 325 325 330 337 335 333 331 324 308 300 300 306 308 305 303 303 303
86 93 98 91 91 87 88 94 110 110 111 109 100 89 66 50 60 73 95 69 46 16 319 304 315 313 321 318 313 325 326 322 311 315 310 300 298 301 304 305 303 298 299
77 83 83 82 88 84 80 92 106 106 109 100 90 80 70 74 78 73 85 59 30 5 337 298 287 283 307 317 323 328 324 318 306 304 306 301 297 299 301 303 302 296 294
69 73 77 78 82 79 80 93 96 102 98 85 90 81 83 86 85 68 50 17 356 335 326 317 305 301 313 317 322 324 316 318 315 306 303 304 305 300 296 297 299 295 291
62 64 75 78 77 76 79 80 89 115 93 83 72 58 119 84 355 294 327 335 338 338 336 327 307 305 307 308 309 310 306 301 305 306 305 303 302 301 299 298 299 295 292
49 50 60 70 72 74 73 73 48 77 73 34 321 293 292 271 284 281 293 303 324 333 338 323 304 307 306 309 308 305 303 298 298 302 304 302 300 296 297 297 296 295 290
42 39 35 49 54 70 70 60 35 0 331 290 298 283 289 290 300 292 296 297 309 313 318 320 314 314 312 305 301 303 305 305 301 299 298 299 302 300 298 295 291 293 291
34 31 26 26 19 36 45 50 37 354 317 289 288 270 272 276 287 291 298 300 300 306 310 312 309 303 305 306 304 303 305 305 309 308 302 301 303 303 304 305 299 294 289
21 18 15 14 9 1 359 342 9 6 337 306 284 267 270 274 277 282 283 286 289 291 300 306 306 295 291 293 294 295 298 298 300 301 299 298 297 297 297 296 296 294 286
7 2 358 356 2 351 313 313 311 323 308 297 287 281 272 272 275 277 282 285 287 288 287 290 290 292 289 287 287 290 290 293 292 293 292 292 293 295 294 293 290 288 285
343 339 342 337 331 327 313 294 291 292 291 293 289 281 279 279 281 283 287 289 288 288 287 287 293 292 288 282 283 287 287 287 289 289 288 288 290 292 292 293 289 288 288
318 319 322 320 314 306 299 291 284 283 284 285 284 279 279 284 286 287 289 288 287 288 291 292 294 293 291 286 282 282 284 284 284 285 287 288 291 292 291 289 285 286 285
Height
5888 5888 5888 5888 5888 5889 5889 5889 5890 5890 5891 5892 5892 5892 5893 5894 5895 5895 5895 5896 5897 5897 5897 5898 5898 5898 5899 5899 5899 5899 5900 5900 5900 5900 5901 5901 5901 5901 5901 5901 5901 5901 5901
5888 5889 5889 5890 5890 5890 5891 5891 5891 5892 5893 5893 5894 5894 5895 5895 5896 5896 5897 5897 5898 5898 5899 5899 5899 5899 5900 5900 5900 5900 5900 5901 5901 5901 5901 5901 5901 5901 5902 5902 5902 5902 5902
5890 5890 5890 5891 5891 5891 5892 5892 5893 5893 5894 5894 5895 5895 5896 5896 5897 5898 5898 5899 5899 5899 5900 5900 5900 5900 5900 5901 5901 5901 5901 5901 5901 5901 5902 5902 5902 5902 5902 5902 5902 5902 5902
5891 5891 5892 5892 5892 5892 5893 5893 5894 5894 5895 5895 5896 5897 5897 5897 5898 5899 5899 5899 5900 5900 5901 5901 5901 5901 5901 5901 5902 5902 5902 5902 5902 5902 5903 5903 5903 5903 5902 5902 5903 5903 5902
5892 5892 5893 5893 5893 5894 5894 5894 5895 5895 5896 5896 5897 5898 5898 5898 5899 5899 5900 5900 5900 5901 5901 5902 5902 5902 5902 5902 5902 5903 5903 5903 5903 5903 5903 5903 5903 5903 5903 5903 5903 5903 5903
5893 5893 5894 5894 5894 5895 5895 5895 5896 5896 5897 5897 5898 5898 5899 5899 5900 5900 5900 5901 5901 5901 5902 5902 5902 5903 5903 5903 5903 5903 5903 5903 5903 5904 5904 5904 5904 5904 5903 5903 5903 5903 5903
5894 5894 5894 5895 5895 5896 5896 5896 5897 5897 5898 5898 5899 5899 5900 5900 5901 5901 5901 5902 5902 5902 5902 5902 5903 5903 5903 5903 5903 5903 5903 5904 5904 5904 5904 5904 5904 5904 5904 5904 5904 5903 5903
5895 5895 5895 5896 5896 5897 5897 5897 5898 5898 5898 5899 5899 5900 5900 5901 5901 5902 5902 5902 5903 5903 5903 5903 5903 5903 5904 5904 5904 5904 5904 5904 5904 5904 5904 5904 5904 5904 5904 5904 5904 5904 5904
5896 5896 5896 5897 5897 5897 5898 5898 5898 5899 5899 5900 5900 5901 5901 5902 5902 5902 5903 5903 5903 5903 5904 5904 5904 5904 5904 5904 5904 5904 5904 5904 5904 5904 5904 5904 5904 5904 5904 5904 5904 5904 5904
5897 5897 5897 5898 5898 5898 5898 5899 5899 5900 5900 5900 5901 5901 5902 5902 5902 5903 5903 5904 5904 5904 5904 5904 5904 5904 5904 5904 5904 5904 5904 5904 5904 5904 5904 5904 5904 5904 5904 5904 5904 5904 5904
5898 5898 5898 5899 5899 5899 5899 5899 5900 5900 5900 5901 5901 5902 5902 5903 5903 5903 5904 5904 5904 5905 5904 5904 5904 5905 5905 5905 5905 5905 5905 5904 5904 5904 5904 5904 5904 5904 5904 5904 5904 5904 5904
5899 5899 5899 5899 5899 5900 5900 5900 5900 5900 5901 5901 5902 5902 5902 5903 5903 5903 5904 5904 5905 5905 5905 5905 5905 5905 5905 5905 5905 5905 5905 5904 5904 5904 5904 5904 5904 5904 5904 5904 5904 5904 5904
5899 5900 5900 5900 5900 5900 5900 5900 5901 5901 5901 5902 5902 5902 5903 5903 5903 5904 5904 5905 5905 5905 5905 5905 5905 5906 5906 5906 5905 5905 5905 5904 5904 5904 5904 5904 5904 5904 5904 5904 5904 5904 5903
5900 5901 5901 5901 5901 5901 5901 5901 5901 5901 5902 5902 5903 5903 5903 5903 5904 5904 5904 5905 5905 5905 5905 5905 5906 5906 5906 5906 5905 5905 5905 5904 5904 5904 5904 5904 5904 5904 5904 5903 5903 5903 5903
5901 5902 5902 5902 5902 5902 5902 5902 5901 5902 5902 5903 5903 5903 5904 5904 5904 5904 5905 5905 5905 5905 5905 5905 5905 5905 5905 5905 5905 5905 5904 5904 5904 5904 5904 5904 5904 5904 5903 5903 5903 5903 5902
5903 5903 5902 5902 5903 5903 5902 5902 5903 5903 5903 5903 5903 5904 5904 5904 5904 5904 5905 5905 5905 5905 5905 5905 5905 5905 5905 5905 5905 5905 5904 5904 5903 5904 5904 5903 5903 5903 5902 5902 5902 5902 5901
5904 5904 5903 5903 5903 5903 5903 5903 5903 5904 5904 5904 5904 5904 5905 5905 5905 5905 5905 5905 5905 5905 5904 5904 5904 5905 5905 5905 5905 5904 5904 5903 5903 5903 5903 5903 5902 5902 5902 5901 5901 5901 5900
5906 5905 5905 5904 5904 5904 5904 5904 5904 5904 5904 5904 5905 5905 5905 5905 5905 5906 5906 5905 5905 5904 5904 5904 5904 5904 5904 5904 5904 5904 5904 5903 5903 5902 5902 5902 5901 5901 5901 5900 5900 5900 5899
5907 5906 5905 5905 5905 5905 5905 5905 5905 5905 5905 5905 5905 5905 5905 5905 5905 5906 5906 5906 5905 5905 5904 5904 5904 5904 5904 5904 5903 5903 5903 5903 5902 5901 5901 5901 5900 5900 5899 5899 5899 5899 5898
5908 5907 5906 5906 5906 5905 5905 5905 5905 5905 5905 5905 5905 5905 5905 5905 5905 5905 5905 5905 5905 5905 5904 5903 5903 5903 5903 5903 5902 5902 5902 5901 5901 5900 5900 5899 5899 5898 5898 5898 5897 5897 5897
5908 5907 5907 5906 5906 5906 5905 5905 5905 5905 5905 5905 5905 5905 5905 5905 5905 5905 5905 5905 5905 5904 5904 5903 5903 5902 5902 5901 5901 5901 5901 5900 5899 5899 5898 5898 5897 5897 5896 5896 5895 5895 5895
5908 5908 5907 5907 5906 5906 5906 5905 5905 5905 5905 5905 5905 5905 5905 5904 5904 5904 5904 5904 5904 5904 5903 5902 5902 5901 5900 5900 5900 5899 5899 5899 5898 5897 5896 5896 5896 5895 5895 5894 5893 5893 5892
5908 5908 5907 5907 5906 5905 5906 5905 5905 5905 5905 5905 5905 5904 5904 5904 5904 5903 5903 5903 5903 5902 5902 5901 5900 5899 5899 5898 5898 5897 5896 5896 5895 5895 5894 5894 5893 5893 5892 5892 5891 5891 5890
5908 5908 5907 5907 5906 5905 5905 5905 5905 5905 5904 5904 5904 5904 5904 5903 5903 5902 5902 5902 5901 5901 5900 5899 5898 5897 5897 5896 5896 5895 5894 5893 5893 5893 5892 5892 5891 5890 5890 5889 5889 5888 5887
5908 5907 5907 5906 5906 5905 5905 5905 5904 5904 5904 5904 5903 5903 5902 5902 5901 5901 5900 5900 5900 5899 5898 5897 5896 5895 5894 5894 5893 5893 5892 5891 5891 5890 5890 5889 5888 5887 5887 5886 5885 5885 5884
5907 5906 5906 5906 5905 5904 5904 5903 5903 5903 5903 5903 5902 5901 5901 5900 5900 5899 5899 5898 5897 5897 5896 5895 5894 5893 5892 5891 5890 5890 5889 5889 5888 5887 5887 5886 5885 5884 5883 5883 5882 5881 5881